RH
32 33 34 34 35 36 37 38 38 39 39 40 40 41 43 44 46 47 48 49 51 52 52 53 54 55 56 57 59 60 61 62 64 65 66 67 68 68 68 69 69 69 68 67 70 72 73 74 74 74 74 74 75 75 75 76 77 79 81 83 83 81 79 76 74 73 72 71 71
32 32 33 34 35 36 37 38 39 39 39 40 41 42 43 45 46 48 49 50 51 52 53 54 55 56 57 58 60 61 62 63 64 65 66 67 68 69 69 70 69 68 67 68 70 71 72 72 71 72 73 73 74 75 76 76 77 80 85 88 87 86 85 83 81 78 77 76 74
31 32 33 34 35 36 37 38 38 39 39 40 41 42 43 45 46 47 49 50 51 53 54 55 56 57 58 59 60 61 62 63 64 65 66 67 68 70 71 72 70 69 69 69 70 71 71 72 72 72 72 73 74 74 75 76 80 85 89 89 88 87 87 87 85 84 83 80 78
30 31 32 33 35 36 37 38 38 38 39 40 41 42 43 44 46 47 49 51 52 53 54 56 57 58 58 59 60 61 62 63 64 66 67 67 70 72 72 71 69 68 68 68 70 71 72 72 72 72 72 71 72 74 76 80 84 87 88 86 83 81 81 83 84 85 84 83 81
28 30 31 32 34 35 36 37 37 38 39 40 41 42 44 45 46 48 49 51 52 53 55 56 57 58 58 59 60 61 63 64 66 66 66 67 68 69 69 69 69 69 69 69 70 71 72 73 73 72 72 72 72 73 75 79 81 83 83 83 82 81 81 82 82 82 81 81 80
27 28 30 31 33 34 35 36 37 38 39 41 42 43 45 46 47 48 50 51 52 53 55 56 57 58 59 60 62 63 64 65 65 65 66 67 67 67 68 69 69 69 69 70 70 70 71 71 71 72 72 73 75 77 78 79 81 82 84 85 85 85 85 84 85 85 84 83 82
25 27 28 30 32 33 35 36 37 39 40 41 43 44 45 46 47 49 50 52 53 55 55 56 57 59 60 61 63 63 64 64 64 65 65 66 66 67 67 67 68 69 70 70 70 71 71 71 72 72 73 75 77 79 81 83 84 86 87 87 87 86 85 86 87 87 87 87 87
24 26 28 29 31 33 34 36 38 39 40 42 43 44 45 47 48 50 52 53 54 55 56 57 59 60 61 62 62 62 62 62 63 64 64 64 65 65 65 66 67 68 69 70 70 70 70 71 72 74 76 81 83 83 82 81 81 81 83 85 87 87 87 87 87 87 87 87 87
25 26 27 29 31 33 34 36 37 39 40 42 43 44 46 48 49 51 52 54 55 56 58 59 60 61 61 62 61 61 61 62 62 63 63 63 63 63 64 65 66 67 68 69 69 69 71 72 75 77 79 80 80 78 76 75 75 75 76 78 79 80 80 80 83 85 87 87 87
25 27 28 29 31 33 34 36 38 39 41 43 44 45 47 48 50 52 53 55 56 57 58 59 60 61 61 61 61 61 61 62 62 62 62 63 63 63 64 65 65 66 66 67 68 69 71 73 74 75 74 73 72 71 71 71 72 73 73 74 75 76 77 79 82 84 86 87 87
27 28 29 30 32 33 35 37 39 40 42 44 46 47 49 50 51 52 53 54 55 56 56 57 58 58 59 59 59 60 60 61 61 61 62 62 63 63 64 64 65 65 65 65 67 69 71 73 74 74 73 72 71 70 69 70 70 70 71 71 73 76 81 85 86 87 86 87 87
28 29 30 31 33 35 36 38 40 42 43 45 47 48 48 49 50 50 51 52 52 53 54 55 56 57 57 58 58 59 59 60 60 61 61 62 62 62 63 63 63 64 64 64 65 67 69 71 71 70 69 68 68 68 68 68 68 69 69 70 73 77 82 85 85 85 85 84 84
29 30 32 33 34 36 37 39 40 42 43 44 45 45 46 46 47 48 49 50 51 52 53 54 55 56 56 57 57 58 58 59 59 60 60 61 61 61 62 62 62 62 63 63 64 65 66 66 66 66 67 67 67 68 68 68 68 69 70 71 73 74 76 79 79 78 77 76 76
30 31 32 34 35 36 37 39 40 41 42 43 43 44 45 45 46 47 49 50 51 52 53 54 54 54 55 56 56 56 57 57 58 58 58 59 59 60 60 61 61 61 62 63 64 64 65 66 66 67 68 68 68 68 68 69 69 69 69 69 70 71 71 71 71 70 70 71 71
31 32 33 34 35 36 38 38 39 40 41 42 42 43 44 45 46 47 48 49 50 51 52 52 52 53 53 54 54 54 55 55 56 56 57 57 58 58 59 59 60 61 62 63 64 65 65 66 67 68 68 69 69 69 68 68 68 67 67 67 67 67 67 67 67 67 68 68 68
32 33 34 35 36 37 38 38 39 40 41 41 42 43 44 44 45 46 47 48 49 49 49 50 50 51 51 52 52 53 53 54 54 55 55 56 56 57 57 58 59 60 61 62 63 64 65 65 66 67 67 67 67 67 66 66 65 65 65 65 65 65 65 65 65 65 65 65 64
33 34 34 35 36 37 37 38 39 39 40 41 41 42 43 44 44 45 46 47 47 47 48 48 49 50 50 50 51 51 52 52 52 53 54 54 55 55 56 57 58 59 60 61 62 63 63 64 64 64 64 64 64 64 63 63 63 63 63 63 63 63 63 63 63 63 62 62 61
33 34 34 35 36 37 37 38 38 39 39 40 41 41 42 43 43 44 45 45 46 46 47 47 48 49 49 49 50 50 51 51 51 52 52 53 54 55 55 56 57 58 59 60 60 61 61 62 62 61 61 61 61 61 61 61 61 61 61 61 62 61 61 61 61 60 60 59 58
32 33 34 35 35 36 36 37 37 37 38 38 39 39 40 41 42 43 44 44 45 46 46 47 47 48 49 49 50 50 51 51 51 52 52 53 53 54 55 55 56 57 58 59 59 59 60 60 59 59 59 59 59 59 59 59 60 60 60 60 60 60 59 59 58 58 57 57 57
32 32 33 33 34 34 34 34 35 35 35 36 36 37 38 39 40 41 42 43 44 45 46 47 47 48 48 49 50 50 51 51 52 52 52 53 53 54 55 56 56 57 58 58 58 59 58 58 58 58 58 58 58 58 58 58 58 58 58 58 58 58 57 57 57 56 56 56 56
30 31 31 31 31 31 31 31 31 32 32 33 33 34 35 36 37 39 40 41 43 44 45 46 46 47 48 49 49 50 50 51 51 52 52 53 53 54 55 56 57 57 57 58 58 58 57 57 57 57 57 57 57 57 57 57 57 57 57 57 56 56 56 56 55 56 56 56 56
29 29 29 28 28 28 29 29 29 30 30 31 32 33 34 35 36 37 39 40 41 42 43 44 45 46 47 48 48 49 49 50 50 51 52 52 53 54 55 55 56 56 56 57 57 57 57 56 56 56 56 56 56 56 56 56 56 55 55 55 55 55 55 55 55 55 56 56 57
26 26 26 26 26 26 27 27 28 29 30 30 31 32 33 34 36 37 38 39 40 41 42 43 44 45 46 46 47 48 48 49 49 50 51 52 53 53 54 55 55 55 56 56 56 56 55 55 55 55 55 55 55 55 55 55 55 55 55 55 55 55 55 55 55 55 55 55 54
24 24 24 25 25 25 26 27 27 28 30 30 32 33 34 35 36 37 38 39 40 41 42 43 43 44 45 46 46 47 47 48 48 49 50 51 52 53 53 54 54 55 55 55 55 54 54 54 54 54 54 55 54 54 54 54 54 54 54 54 54 54 54 54 53 51 50 49 47
23 23 23 24 24 25 26 27 28 29 30 31 32 34 35 36 36 37 38 39 40 41 42 42 43 44 44 45 45 46 46 47 48 48 49 50 51 52 52 53 53 53 53 53 53 53 53 53 54 54 54 54 54 54 54 54 54 54 53 53 52 51 49 47 45 43 41 39 37
23 23 23 24 25 26 27 28 29 30 31 32 34 35 36 37 37 38 39 40 40 41 42 42 43 43 44 44 45 45 46 46 47 48 48 49 49 50 50 50 51 51 51 51 51 52 52 52 52 53 53 53 54 54 54 53 52 51 49 47 45 42 40 38 35 33 32 30 29
23 23 24 25 25 26 27 28 30 31 32 33 35 36 37 37 38 39 39 40 40 41 41 42 42 42 43 43 44 44 45 45 46 46 47 48 48 48 48 48 49 49 50 50 51 51 51 51 51 51 51 52 52 52 51 49 47 44 41 38 35 33 31 29 27 26 26 25 25
23 24 24 25 26 27 28 29 31 32 33 35 36 37 38 38 39 39 39 40 40 40 41 41 41 42 42 43 43 44 44 44 45 45 45 46 46 46 47 47 48 48 49 49 49 50 50 50 49 49 49 49 48 46 44 41 38 35 32 30 28 26 25 24 24 23 23 22 22
23 24 24 25 26 27 28 30 31 33 34 35 37 37 38 38 39 39 39 39 40 40 40 41 41 42 42 43 43 43 43 43 44 44 44 44 45 45 46 46 47 47 47 48 48 48 48 47 46 45 44 43 41 38 35 33 30 28 26 25 24 23 23 22 22 22 21 21 20
24 24 25 26 27 28 29 31 32 33 35 36 37 38 38 39 39 39 39 39 40 40 41 41 42 42 42 43 42 42 42 42 42 42 43 43 43 44 44 45 45 45 45 45 45 45 44 43 41 39 38 36 34 31 29 27 25 25 24 23 22 22 22 21 21 20 20 20 20
24 25 25 26 27 28 30 31 32 34 35 37 37 38 38 38 39 39 39 40 40 41 41 41 42 42 42 42 41 41 41 41 41 41 41 42 42 42 42 43 43 42 42 41 41 40 38 37 35 34 32 31 29 27 26 25 24 23 22 22 21 21 20 20 20 20 20 20 20
25 25 26 27 28 29 30 32 33 35 36 37 38 38 39 39 39 39 40 40 41 41 41 41 41 41 41 41 40 40 40 40 40 40 40 40 40 40 39 39 38 38 37 37 36 35 34 32 31 30 29 27 26 25 24 23 22 22 21 21 20 20 20 20 20 20 20 21 21
25 26 27 27 29 30 31 33 34 36 37 38 39 39 39 40 40 40 40 41 41 41 41 41 41 41 40 40 40 39 39 38 38 38 37 37 37 36 35 35 34 34 33 33 33 32 31 30 28 27 26 25 24 23 22 21 21 21 21 21 21 21 21 21 21 21 21 22 22
26 27 27 28 30 31 33 34 36 37 38 39 40 40 40 41 41 41 40 40 40 40 40 40 40 39 39 39 38 37 37 36 35 34 34 33 33 32 32 32 32 32 31 31 30 29 28 27 25 24 23 23 22 22 21 21 21 21 22 22 22 22 22 22 22 22 23 23 24
27 28 28 30 31 32 34 35 37 38 39 40 40 40 41 41 41 40 40 40 39 39 39 38 38 37 37 36 35 35 34 33 32 31 31 31 31 31 31 31 30 30 29 29 27 26 25 24 23 22 22 22 22 22 22 22 22 22 22 23 23 23 22 23 23 23 24 25 26
28 29 30 31 32 34 35 37 38 39 40 40 40 40 40 40 40 40 39 39 38 38 37 36 36 35 34 33 33 32 32 31 31 31 30 30 30 30 30 29 28 27 27 26 25 24 23 22 22 22 22 22 22 23 23 23 23 23 23 23 23 23 23 24 24 24 25 26 27
29 30 31 33 34 35 37 38 39 40 40 40 40 40 40 40 39 39 38 37 36 36 35 34 33 33 33 32 32 32 31 31 31 31 30 30 29 29 28 27 26 25 24 23 23 22 22 22 22 23 23 23 24 24 24 24 24 24 24 24 24 24 24 25 26 26 27 27 28
31 32 33 34 36 37 38 39 40 40 40 40 40 40 40 39 38 37 36 35 35 34 33 33 33 33 33 32 32 32 31 31 30 30 29 28 27 27 26 24 23 23 22 22 22 22 22 23 23 24 25 25 25 25 25 25 25 25 25 25 26 26 27 27 27 28 28 29 29
32 34 35 36 37 38 39 40 40 40 40 40 40 39 39 38 37 36 35 34 33 33 33 33 33 33 33 33 32 32 31 30 29 28 27 26 25 24 23 23 22 22 22 22 23 23 23 24 25 25 26 26 26 26 26 26 26 26 27 28 29 29 30 30 30 30 30 30 31
34 35 36 38 39 40 40 41 41 41 40 40 39 38 37 36 36 35 34 33 33 33 34 34 34 34 33 32 32 31 30 29 27 26 25 25 24 23 22 22 22 22 22 23 24 24 25 25 26 27 27 27 28 27 27 27 28 29 31 32 33 33 33 33 32 32 31 32 33
35 36 38 39 40 41 41 41 41 40 39 39 38 37 37 36 35 35 35 34 34 34 34 34 33 33 32 31 30 29 28 27 26 25 24 23 23 22 22 22 22 23 23 24 25 25 26 26 27 28 28 30 30 30 29 29 31 33 35 35 35 35 35 34 34 33 33 33 33